STARLINK-3668, 52002

Orbit data source: Space-Track

STARLINK-3668, 52002 is a payload satellite owned by SpaceX/Seattle (US) in LEO that was launched on Wed, 09 Mar 2022 UTC via an FALCON 9 launch vehicle from the Air Force Eastern Test Range (AFETR). Payload-class satellites include a variety of spacecraft equipped with specific instruments for various scientific and technological missions. These include communications satellites like Starlink; space stations such as the ISS; scientific satellites like the Hubble; Earth observation satellites from companies like Planet Labs, Umbra, and HawkEye 360; GPS; miniature CubeSats for education and research; and military/defense satellites.

Loading next visibility...
Identifier
52002, 2022-025AY
Orbit
LEO
Country
Flag of USUS
Related business
Manufacturer
SpaceX/Seattle
Mission
Operational Commercial Communications
Bus & Motor
STARLINK, Unknown motor
Mass
297 kg wet, ~275 kg dry
Launch date (UTC)
2022-03-09 (4 years ago)
Launch vehicle
FALCON 9
Launch site
Air Force Eastern Test Range (AFETR)
Object type
Payload
Rocket body
Debris
Shape & HBR
Box + 1 Pan, 10.1 m
Radar Cross Section
13.562 m², Large (>1 m²)

Expand to show TLE details & history
Last TLE update: 1 day ago

TLE from 1 day ago
0 STARLINK-3668
1 52002U 22025AY  25346.45626684 -.00006883  00000-0 -41455-3 0  9990
2 52002  53.2178  50.7659 0001482  96.6429 263.4732 15.08861846207755
Epoch: 2025-12-12T10:57Z
TLE epoch observation values (Epoch: 2025-12-12T10:57:01.454Z)
Latitude
-0.00004°
Longitude
165.11218°
Altitude
540.691 km
Speed
7.593 km/s
True Right ascension
03h 23m 03s
True Declination
0° 00' 00"
Sunlit
Object was in full shadow at epoch
Visualization orbit readout
Latitude
Unknown
Longitude
Unknown
Altitude
Unknown
Speed
Unknown
Apparent Right ascension
Unknown
Apparent Declination
Unknown
Sunlit
N/A
Visualization observer readout
Local Sidereal Time
09:18:50
Azimuth
Unknown
Elevation
Unknown
Doppler factor
Unknown
Orbital elements
Apogee altitude
540.947 km
Perigee altitude
538.896 km
Semi-major axis
6,918.058 km
Eccentricity
0.00015
Inclination
53.2178°
RAAN
50.7659°
Arg. of periapsis
96.6429°
True anomaly
263.45633°
Mean anomaly
263.4732°
Eccentric anomaly
263.46476°
Mean motion
3.77196 °/min
Orbital period
95.44 mins
BSTAR
-0.00041455
Loading maneuver chart data...
Computing Atmospheric mass density...
Loading historical data...
Loading historical data...
Loading historical data...
Loading historical data...
Loading historical data...
Loading historical data...
Loading historical data...

Documentation

Showing up to 5 results
|